Regional Weather Roundup
Issued by NWS

Home | Current Version | Previous Version | Graphics & Text | Print | Product List | Glossary On
Versions: 1 2 3 4 5 6 7 8 9 10 11 12 13 14 15 16 17 18 19 20 21 22 23 24 25 26 27 28 29 30 31 32 33 34 35 36 37 38 39 40 41 42 43 44 45 46 47 48 49 50
000
ASUS45 KABQ 300910
RWRNM
NEW MEXICO REGIONAL WEATHER ROUNDUP
NATIONAL WEATHER SERVICE ALBUQUERQUE NM
300 AM MDT THU MAR 30 2017

NOTE: "FAIR" MEANS FEW OR NO CLOUDS BELOW 12,000 FEET AGL WITH NO
       SIGNIFICANT WEATHER OR OBSTRUCTIONS TO VISION.

      THIS PRODUCT IS RELEASED AS TWO VERSIONS.  ONE VERSION NEAR
      THE TOP OF THE HOUR CONTAINING PRELIMINARY DATA FROM ALBUQUERQUE
      AND OTHER STATIONS.  A FINAL VERSION WITH ADDITIONAL DATA IS
      ISSUED ABOUT 10 MINUTES AFTER THE HOUR.

NMZ501-503-504-510>518-301000-
NORTHWEST PLATEAU/NORTHCENTRAL MOUNTAINS

CITY           SKY/WX    TMP DP  RH WIND       PRES   REMARKS
FARMINGTON     FAIR      40  21  46 W7        30.02S
LOS ALAMOS     FAIR      37  33  84 CALM      30.05F
SANTA FE       FAIR      35  34  96 CALM      30.03F
TAOS             N/A     34  25  69 N3        30.06F

$$
NMZ402-403-502-505>509-301000-
WESTCENTRAL MOUNTAINS/SOUTHWEST MOUNTAINS

CITY           SKY/WX    TMP DP  RH WIND       PRES   REMARKS
GALLUP         FAIR      28  20  71 CALM      30.11S
GRANTS         FAIR      29  23  80 NW3       30.10F
SILVER CITY    FAIR      37  30  76 N9        30.09F WCI  30

$$
NMZ407-409-411-412-301000-
SOUTHERN DESERTS

CITY           SKY/WX    TMP DP  RH WIND       PRES   REMARKS
DEMING         FAIR      41  33  73 NW7       30.07F
LAS CRUCES     FAIR      41  36  81 W3        30.07F
HOLLOMAN AFB   FAIR      42  40  92 CALM      30.09F
ALAMOGORDO       N/A    N/A N/A N/A MISG        N/A
T OR C         FAIR      41  35  79 NW7       30.06F

$$
NMZ519>523-301000-
CENTRAL VALLEYS/CENTRAL HIGHLANDS

CITY           SKY/WX    TMP DP  RH WIND       PRES   REMARKS
ALBUQUERQUE    FAIR      43  37  79 SE7       30.05F
MORIARTY ARPT  FAIR      32  30  94 CALM      30.05F
CLINES CORNERS NOT AVBL
BELEN          FAIR      42  39  87 S5        30.04F
SOCORRO        FAIR      40  38  93 NW6       30.05S

$$
NMZ524>526-539-540-301000-
SOUTHCENTRAL MOUNTAINS

CITY           SKY/WX    TMP DP  RH WIND       PRES   REMARKS
RUIDOSO        FAIR      36  32  87 W7        30.09S WCI  30

$$
NMZ527>531-301000-
NORTHEAST HIGHLANDS/NORTHEAST PLAINS

CITY           SKY/WX    TMP DP  RH WIND       PRES   REMARKS
LAS VEGAS      FAIR      30  27  88 NE6       29.97F WCI  24
RATON          FAIR      27  24  89 E8        29.95F WCI  19
CLAYTON        FAIR      38  34  85 W15       29.91F WCI  29

$$
NMZ532>537-301000-
EASTCENTRAL PLAINS

CITY           SKY/WX    TMP DP  RH WIND       PRES   REMARKS
TUCUMCARI      FAIR      42  37  82 SW6       29.92F
CANNON AFB     FAIR      42  42 100 W13       29.95F
CLOVIS AIRPORT FAIR      39  34  81 W10       29.95F WCI  32

$$
NMZ028-029-538-301000-
SOUTHEAST PLAINS

CITY           SKY/WX    TMP DP  RH WIND       PRES   REMARKS
ROSWELL        FAIR      43  38  82 W7          N/A
ARTESIA        FAIR      39  36  87 W3        29.99F
CARLSBAD       FAIR      40  32  73 W5        29.98F


$$




USA.gov is the U.S. government's official web portal to all federal, state and local government web resources and services.